[[{"header":{"parameterUnit":"m.s-1","parameterCategory":1,"la1":30.2991,"la2":30.254,"lo1":-89.0895,"lo2":-89.0444,"dy":0.0017,"dx":0.0017,"nx":28,"ny":28,"refTime":"2025-09-01T09:00:00:Z","depth":0,"parameterNumber":2,"parameterNumberName":"U-component_of_WINDS"},"data":[0,0,0,0,0,0,0,0,0,0,0,0,0,0,0,0,0,0,0,0,0,0,0,0,0,0,0,0,0,0,0,0,0,0,0,0,0,0,0,0,0,0,0,0,0,0,0,0,0,0,0,0,0,0,0,0,0,0,-5.236,-5.2361,0,-5.2523,-5.2525,-5.2527,-5.245,-5.2446,-5.2441,-5.2437,-5.2607,-5.2615,-5.2623,0,0,0,0,0,0,0,0,0,0,0,0,0,-5.198,-5.1988,-5.2359,-5.2362,-5.2364,-5.2523,-5.2525,-5.2528,-5.245,-5.2445,-5.244,-5.2436,-5.2604,-5.2614,-5.2624,0,0,0,0,0,0,0,0,0,0,0,0,0,-5.2145,-5.199,-5.2359,-5.2344,-5.2345,-5.2523,-5.2525,-5.2528,-5.2452,-5.2445,-5.2439,-5.2433,-5.2601,-5.2613,-5.2625,-5.2828,0,0,-5.2664,-5.2669,0,0,0,0,0,0,0,0,-5.2135,-5.2159,-5.2344,-5.2346,-5.2346,-5.246,-5.2454,-5.2629,-5.2453,-5.2411,-5.2437,-5.243,-5.2563,-5.2578,-5.2623,-5.2836,-5.2843,-5.2665,-5.2672,-5.2678,-5.2681,0,0,0,0,0,0,0,-5.2124,-5.2151,-5.2424,-5.2347,-5.2348,-5.233,-5.2346,-5.2486,-5.252,-5.2414,-5.2409,-5.2429,-5.2562,-5.2611,-5.2626,-5.2846,-5.2665,-5.2676,-5.2683,-5.2688,-5.3233,-5.324,0,0,0,0,0,0,-5.2113,-5.2142,-5.2419,-5.2429,-5.2223,-5.2341,-5.236,-5.243,-5.2518,-5.2526,-5.2434,-5.2425,-5.2592,-5.2612,-5.2632,-5.2876,-5.2678,-5.269,-5.2697,-5.3227,-5.3235,-5.3242,0,0,0,0,0,0,-5.2105,-5.2139,-5.2412,-5.2284,-5.2318,-5.2355,-5.2434,-5.2436,-5.2485,-5.2534,-5.2539,-5.2478,-5.2588,-5.2614,-5.278,-5.2881,-5.2695,-5.2707,-5.3218,-5.3229,-5.3239,-5.3365,0,0,0,0,0,0,-5.2095,-5.2136,-5.2214,-5.2287,-5.2325,-5.2558,-5.244,-5.2444,-5.2506,-5.2496,-5.2576,-5.2583,-5.2585,-5.2761,-5.2792,-5.2894,-5.2717,-5.3209,-5.3223,-5.3235,-5.3352,-5.3378,-5.3401,0,0,0,0,0,-5.2081,-5.2243,-5.2218,-5.2252,-5.2423,-5.2564,-5.2586,-5.2585,-5.2515,-5.2593,-5.2624,-5.2581,-5.2864,-5.2779,-5.2813,-5.2921,-5.3203,-5.3219,-5.3234,-5.3341,-5.3373,-5.34,0,0,0,0,0,0,-5.2181,-5.2252,-5.2225,-5.2415,-5.2484,-5.2551,-5.2649,-5.2619,-5.2709,-5.2696,-5.269,-5.2709,-5.2881,-5.2917,-5.2821,-5.3121,-5.3023,-5.3046,-5.3092,-5.3123,-5.3147,-5.3136,-5.2727,0,0,0,0,0,-5.2225,-5.2334,-5.239,-5.2552,-5.2588,-5.2613,-5.2674,-5.2667,-5.2739,-5.2768,-5.2811,-5.2882,-5.2987,-5.3057,-5.3156,-5.3356,-5.3373,-5.3446,-5.3471,-5.3491,-5.3512,-5.3621,-5.3655,-5.3294,-5.3293,-5.3293,0,0,-5.2318,-5.237,-5.2439,-5.2574,-5.2626,-5.2739,-5.2638,-5.2762,-5.2846,-5.2786,-5.2946,-5.298,-5.3059,-5.3243,-5.3326,-5.3278,-5.3615,-5.3511,-5.3526,-5.3536,-5.364,-5.3674,-5.3705,-5.3304,-5.3302,-5.3301,0,0,-5.2544,-5.2594,-5.2735,-5.279,-5.287,-5.2885,-5.2919,-5.299,-5.3011,-5.317,-5.3128,-5.3228,-5.3408,-5.3467,-5.352,-5.3767,-5.3731,-5.38,-5.3929,-5.4035,-5.4064,-5.4089,-5.4179,-5.4211,-5.382,-5.382,-5.382,0,-5.265,-5.2818,-5.2811,-5.2939,-5.3,-5.295,-5.3093,-5.3146,-5.3255,-5.3298,-5.3242,-5.3468,-5.3518,-5.3715,-5.3776,-5.382,-5.3859,-5.3792,-5.406,-5.4085,-5.4109,-5.4194,-5.4228,-5.3828,-5.3827,-5.3826,-5.3826,0,-5.2944,-5.3061,-5.3165,-5.3272,-5.3344,-5.3479,-5.3493,-5.3566,-5.3552,-5.3573,-5.3737,-5.3794,-5.3904,-5.395,-5.3938,-5.4146,-5.4114,-5.4059,-5.3961,-5.4151,-5.4232,-5.4264,-5.384,-5.3837,-5.3834,-5.3832,0,0,-5.3241,-5.334,-5.3379,-5.3427,-5.3511,-5.3602,-5.3734,-5.3841,-5.3905,-5.3981,-5.4093,-5.4246,-5.4196,-5.4257,-5.425,-5.4344,-5.4538,-5.4278,-5.4279,-5.4326,-5.4772,-5.4814,-5.4853,-5.4513,-5.4519,-5.4524,-5.4766,0,-5.3475,-5.3706,-5.3704,-5.3918,-5.4027,-5.398,-5.4095,-5.416,-5.4183,-5.4279,-5.4303,-5.4413,-5.4338,-5.4374,-5.4464,-5.4495,-5.4628,-5.4477,-5.4618,-5.4623,-5.4602,-5.4894,-5.4939,-5.5165,-5.4797,-5.4803,-5.4807,0,-5.378,-5.3866,-5.4091,-5.416,-5.4205,-5.4309,-5.4407,-5.4499,-5.4571,-5.4581,-5.4648,-5.4627,-5.4761,-5.4657,-5.4843,-5.4741,-5.4797,-5.4821,-5.483,-5.4845,-5.4728,-5.4919,-5.5237,-5.5272,-5.4856,-5.4852,-5.4848,0,-5.3976,-5.4148,-5.4305,-5.4347,-5.443,-5.4505,-5.4543,-5.4608,-5.4673,-5.4758,-5.48,-5.49,-5.4956,-5.5034,-5.5041,-5.4963,-5.5229,-5.5124,-5.5242,-5.5242,-5.5302,-5.5299,-5.5636,-5.5335,-5.5335,-5.5334,-5.5333,0,-5.4239,-5.438,-5.4395,-5.4492,-5.4647,-5.4642,-5.4797,-5.4828,-5.4886,-5.4989,-5.4954,-5.5051,-5.5052,-5.5152,-5.5157,-5.5311,-5.5336,-5.5349,-5.5349,-5.5354,-5.5352,-5.5393,-5.5378,-5.5343,-5.5341,-5.5339,-5.5338,0,-5.4486,-5.4501,-5.467,-5.4735,-5.4754,-5.4866,-5.4921,-5.5014,-5.5032,-5.5163,-5.5193,-5.5223,-5.5338,-5.5351,-5.5485,-5.5489,-5.5675,-5.5658,-5.5651,-5.5649,-5.5767,-5.5757,-5.6144,-5.6195,-5.5859,-5.5862,-5.5865,0,-5.4654,-5.4761,-5.4837,-5.4903,-5.4945,-5.5051,-5.5117,-5.5115,-5.5185,-5.5275,-5.5357,-5.5468,-5.5557,-5.5743,-5.5777,-5.5879,-5.5865,-5.5994,-5.5881,-5.5882,-5.587,-5.5864,-5.5876,-5.6017,-5.6021,-5.6023,-5.6026,0,-5.4952,-5.4954,-5.505,-5.5149,-5.5228,-5.5305,-5.5378,-5.5434,-5.5441,-5.5522,-5.5638,-5.5708,-5.5844,-5.5955,-5.6056,-5.6095,-5.6064,-5.6061,-5.6094,-5.6101,-5.6093,-5.6101,-5.5714,-5.6053,-5.605,-5.6048,-5.6047,-5.6045,-5.5166,-5.5259,-5.5327,-5.5435,-5.5489,-5.5558,-5.5648,-5.5677,-5.5774,-5.5885,-5.5878,-5.6007,-5.6076,-5.6208,-5.6254,-5.6356,-5.6313,-5.6361,-5.6373,-5.6386,-5.6398,-5.6075,-5.6374,-5.6373,-5.6372,-5.6372,-5.6371,0,-5.5463,-5.5504,-5.5603,-5.5706,-5.5791,-5.5751,-5.5829,-5.5903,-5.6017,-5.6084,-5.6172,-5.6306,-5.6414,-5.6455,-5.6561,-5.6634,-5.6622,-5.6662,-5.6658,-5.6668,-5.6429,-5.6391,-5.667,-5.667,-5.667,-5.667,-5.667,-5.667,-5.5628,-5.5784,-5.5794,-5.5976,-5.6015,-5.6141,-5.619,-5.6253,-5.6306,-5.6458,-5.6546,-5.6572,-5.6629,-5.6738,-5.6835,-5.6845,-5.6886,-5.6933,-5.6937,-5.6714,-5.6684,-5.6655,-5.662,-5.6942,-5.6942,-5.7167,-5.7169,-5.717]},{"header":{"parameterUnit":"m.s-1","parameterCategory":1,"la1":30.2991,"la2":30.254,"lo1":-89.0895,"lo2":-89.0444,"dy":0.0017,"dx":0.0017,"nx":28,"ny":28,"refTime":"2025-09-01T09:00:00:Z","depth":0,"parameterNumber":3,"parameterNumberName":"V-component_of_WINDS"},"data":[0,0,0,0,0,0,0,0,0,0,0,0,0,0,0,0,0,0,0,0,0,0,0,0,0,0,0,0,0,0,0,0,0,0,0,0,0,0,0,0,0,0,0,0,0,0,0,0,0,0,0,0,0,0,0,0,0,0,-2.1508,-2.1508,0,-2.1455,-2.1455,-2.1454,-2.1374,-2.1373,-2.1372,-2.137,-2.1317,-2.1317,-2.1317,0,0,0,0,0,0,0,0,0,0,0,0,0,-2.1542,-2.1542,-2.1509,-2.1508,-2.1507,-2.1455,-2.1455,-2.1454,-2.1375,-2.1373,-2.1371,-2.137,-2.1318,-2.1317,-2.1317,0,0,0,0,0,0,0,0,0,0,0,0,0,-2.1512,-2.1542,-2.1509,-2.1461,-2.1457,-2.1455,-2.1455,-2.1454,-2.1375,-2.1373,-2.1371,-2.1369,-2.1318,-2.1317,-2.1317,-2.1359,0,0,-2.1317,-2.1317,0,0,0,0,0,0,0,0,-2.1514,-2.1511,-2.1469,-2.1465,-2.1459,-2.1419,-2.1447,-2.1422,-2.1376,-2.1406,-2.137,-2.1368,-2.1353,-2.135,-2.1345,-2.1356,-2.1354,-2.1317,-2.1317,-2.1317,-2.1317,0,0,0,0,0,0,0,-2.1516,-2.1513,-2.1487,-2.1469,-2.1463,-2.1443,-2.1436,-2.1442,-2.1392,-2.1403,-2.1397,-2.1392,-2.135,-2.1345,-2.1343,-2.1353,-2.1317,-2.1317,-2.1317,-2.1317,-2.1394,-2.1396,0,0,0,0,0,0,-2.1525,-2.1515,-2.1489,-2.1486,-2.1482,-2.1444,-2.1437,-2.1434,-2.1392,-2.1383,-2.1394,-2.1389,-2.1346,-2.1343,-2.1341,-2.1385,-2.1317,-2.1317,-2.1316,-2.1391,-2.1394,-2.1396,0,0,0,0,0,0,-2.1526,-2.1523,-2.1491,-2.1499,-2.1493,-2.1446,-2.1444,-2.1434,-2.1429,-2.1385,-2.1376,-2.1398,-2.1344,-2.1341,-2.1354,-2.1382,-2.1316,-2.1316,-2.1389,-2.1392,-2.1395,-2.1475,0,0,0,0,0,0,-2.1527,-2.1524,-2.154,-2.15,-2.1493,-2.1506,-2.1445,-2.1435,-2.1429,-2.1421,-2.1386,-2.1378,-2.1343,-2.1355,-2.1354,-2.1381,-2.1316,-2.1386,-2.139,-2.1394,-2.147,-2.1481,-2.149,0,0,0,0,0,-2.1529,-2.1565,-2.1541,-2.1538,-2.1511,-2.1508,-2.1504,-2.1462,-2.1431,-2.1446,-2.1417,-2.1379,-2.1379,-2.1357,-2.1355,-2.1383,-2.1384,-2.1389,-2.1394,-2.1465,-2.1479,-2.149,0,0,0,0,0,0,-2.1611,-2.1559,-2.1532,-2.1556,-2.1537,-2.1494,-2.1512,-2.1478,-2.1467,-2.1461,-2.1409,-2.1402,-2.1421,-2.1403,-2.1379,-2.1419,-2.1376,-2.138,-2.1431,-2.1443,-2.1453,-2.1457,-2.1316,0,0,0,0,0,-2.1631,-2.1633,-2.1587,-2.1613,-2.1605,-2.156,-2.1557,-2.1526,-2.1504,-2.1496,-2.1468,-2.1449,-2.1444,-2.1442,-2.1436,-2.1466,-2.1457,-2.1484,-2.1494,-2.1503,-2.1508,-2.1521,-2.1532,-2.1412,-2.1412,-2.1412,0,0,-2.1675,-2.1647,-2.1651,-2.1629,-2.1611,-2.1613,-2.1554,-2.156,-2.1561,-2.1497,-2.1507,-2.1486,-2.1461,-2.1483,-2.1491,-2.1468,-2.1539,-2.1509,-2.1516,-2.1516,-2.1527,-2.1539,-2.1549,-2.1415,-2.1415,-2.1414,0,0,-2.1755,-2.1734,-2.1752,-2.1734,-2.1706,-2.1676,-2.1681,-2.1643,-2.1626,-2.1635,-2.1587,-2.1588,-2.1581,-2.1565,-2.1556,-2.1627,-2.1591,-2.1626,-2.1679,-2.1693,-2.1703,-2.1711,-2.1736,-2.1745,-2.1631,-2.1631,-2.1631,0,-2.1812,-2.1814,-2.1767,-2.1774,-2.1766,-2.1707,-2.1725,-2.171,-2.1682,-2.1677,-2.1652,-2.1641,-2.162,-2.1636,-2.1654,-2.1648,-2.1651,-2.163,-2.1705,-2.1713,-2.172,-2.1743,-2.1752,-2.1636,-2.1635,-2.1635,-2.1634,0,-2.1885,-2.1887,-2.1905,-2.1878,-2.1872,-2.1885,-2.1839,-2.1838,-2.1807,-2.178,-2.1789,-2.1761,-2.1748,-2.1749,-2.172,-2.1761,-2.1747,-2.1714,-2.167,-2.1736,-2.1757,-2.1766,-2.1642,-2.164,-2.1639,-2.1638,0,0,-2.2017,-2.1962,-2.197,-2.1956,-2.192,-2.192,-2.193,-2.1915,-2.1915,-2.1897,-2.1904,-2.1899,-2.1867,-2.1856,-2.1824,-2.1836,-2.1893,-2.1801,-2.18,-2.1819,-2.1937,-2.1962,-2.1973,-2.1869,-2.187,-2.1872,-2.1939,0,-2.209,-2.2104,-2.2061,-2.2085,-2.2085,-2.2028,-2.2037,-2.2015,-2.1989,-2.1985,-2.1956,-2.1953,-2.1912,-2.1905,-2.1914,-2.1885,-2.1916,-2.1879,-2.1875,-2.1875,-2.1883,-2.1984,-2.2011,-2.2076,-2.1946,-2.1948,-2.1949,0,-2.2177,-2.2163,-2.2187,-2.2148,-2.2146,-2.2155,-2.2137,-2.2134,-2.2108,-2.2088,-2.2075,-2.2037,-2.2043,-2.2,-2.2008,-2.1984,-2.1979,-2.1964,-2.1965,-2.1964,-2.1917,-2.1985,-2.2096,-2.2106,-2.1961,-2.196,-2.1959,0,-2.2271,-2.2257,-2.2269,-2.2259,-2.2214,-2.2221,-2.2202,-2.2174,-2.2168,-2.2152,-2.2147,-2.2133,-2.2125,-2.2115,-2.2073,-2.2046,-2.2086,-2.2039,-2.2069,-2.2071,-2.2081,-2.2081,-2.2193,-2.2078,-2.2078,-2.2078,-2.2078,0,-2.2357,-2.2374,-2.231,-2.2318,-2.2335,-2.2285,-2.2303,-2.2279,-2.2254,-2.2255,-2.2205,-2.2208,-2.2153,-2.215,-2.2117,-2.2128,-2.2125,-2.2109,-2.21,-2.2114,-2.2116,-2.211,-2.2105,-2.208,-2.208,-2.2079,-2.2079,0,-2.2465,-2.2423,-2.2432,-2.2388,-2.2377,-2.2391,-2.2353,-2.2358,-2.2328,-2.2331,-2.2328,-2.2281,-2.2274,-2.2232,-2.2215,-2.2193,-2.2216,-2.2198,-2.2225,-2.2219,-2.2251,-2.2249,-2.2363,-2.2376,-2.2254,-2.2255,-2.2256,0,-2.2522,-2.2534,-2.249,-2.2487,-2.2471,-2.2467,-2.2459,-2.241,-2.2404,-2.2374,-2.2383,-2.2372,-2.236,-2.2351,-2.2316,-2.2303,-2.2284,-2.2325,-2.2282,-2.2295,-2.2284,-2.2284,-2.2285,-2.2335,-2.2336,-2.2338,-2.2339,0,-2.263,-2.2608,-2.2599,-2.2582,-2.2574,-2.2559,-2.254,-2.2541,-2.2486,-2.2482,-2.2473,-2.2464,-2.2446,-2.2436,-2.2416,-2.2397,-2.2359,-2.2352,-2.2358,-2.2373,-2.2387,-2.2379,-2.225,-2.235,-2.2349,-2.2348,-2.2347,-2.2347,-2.2714,-2.2721,-2.2691,-2.2682,-2.2662,-2.2646,-2.2648,-2.2617,-2.2609,-2.2591,-2.2561,-2.2557,-2.2529,-2.2498,-2.2482,-2.2477,-2.2456,-2.2465,-2.2467,-2.247,-2.2477,-2.2387,-2.2474,-2.2473,-2.2473,-2.2473,-2.2472,0,-2.2818,-2.2795,-2.2788,-2.2763,-2.2755,-2.2719,-2.2696,-2.2692,-2.2689,-2.2666,-2.2655,-2.2645,-2.2633,-2.2596,-2.2581,-2.2584,-2.2566,-2.2582,-2.2582,-2.2578,-2.2498,-2.2494,-2.2597,-2.2597,-2.2597,-2.2597,-2.2597,-2.2597,-2.2872,-2.2881,-2.2856,-2.2855,-2.2831,-2.2826,-2.2816,-2.28,-2.2781,-2.2772,-2.2762,-2.2737,-2.2708,-2.269,-2.2678,-2.2667,-2.2664,-2.2685,-2.2669,-2.2595,-2.2583,-2.2572,-2.2568,-2.2685,-2.2685,-2.2749,-2.275,-2.275]}]]